DMSP 5D-2 F13 DEB, 40521

Orbit data source: Space-Track

DMSP 5D-2 F13 DEB, 40521 is space debris in SSO originally from a launch on Fri, 24 Mar 1995 UTC launched from the Air Force Western Test Range (AFWTR). Debris objects in space refer to the collection of defunct objects orbiting the Earth. Examples of debris include non-operational satellites, rocket bodies, and fragments generated from explosions, collisions, or faulty payload assembly.

Loading next visibility...
Identifier
40521, 1995-015DH
Orbit
SSO
Country
Flag of USUS
Related business
Manufacturer
Unknown
Mission
Spacecraft
Bus & Motor
Unknown
Mass
Unknown
Launch date (UTC)
1995-03-24 (31 years ago)
Launch vehicle
Unknown
Launch site
Air Force Western Test Range (AFWTR)
Object type
Payload
Rocket body
Debris
Shape & HBR
Unknown shape, 0.1 m
Radar Cross Section
Small (<0.1 m²)

Expand to show TLE details & history
Last TLE update: 22 hours ago

TLE from 22 hours ago
0 DMSP 5D-2 F13 DEB
1 40521U 95015DH  25296.96549406  .00014924  00000-0  32887-2 0  9999
2 40521  98.6014   9.1889 0025426 115.2421 245.1416 14.57290032553786
Epoch: 2025-10-23T23:10Z
TLE epoch observation values (Epoch: 2025-10-23T23:10:18.686Z)
Latitude
-0.00001°
Longitude
-11.00614°
Altitude
712.513 km
Speed
7.495 km/s
True Right ascension
00h 36m 45s
True Declination
0° 00' 00"
Sunlit
Object was in full shadow at epoch
Visualization orbit readout
Latitude
Unknown
Longitude
Unknown
Altitude
Unknown
Speed
Unknown
Apparent Right ascension
Unknown
Apparent Declination
Unknown
Sunlit
N/A
Visualization observer readout
Local Sidereal Time
16:52:06
Azimuth
Unknown
Elevation
Unknown
Doppler factor
Unknown
Orbital elements
Apogee altitude
717.036 km
Perigee altitude
681.047 km
Semi-major axis
7,077.178 km
Eccentricity
0.00254
Inclination
98.6014°
RAAN
9.1889°
Arg. of periapsis
115.2421°
True anomaly
244.87759°
Mean anomaly
245.1416°
Eccentric anomaly
245.00956°
Mean motion
3.64547 °/min
Orbital period
98.75 mins
BSTAR
0.0032887
Loading maneuver chart data...
Computing Atmospheric mass density...

Documentation

Showing up to 5 results
|